Satellite: NO-44
Catalog number: 26931
Epoch time:      11047.92308470
Element set:    0684
Inclination:      067.0535 deg
RA of node:       293.4100 deg
Eccentricity:    0.0007034
Arg of perigee:   271.7388 deg
Mean anomaly:     088.2901 deg
Mean motion:   14.29632569 rev/day
Decay rate:      -1.72e-06 rev/day^2
Epoch rev:           48973
Checksum:              315

Satellite: SO-50
Catalog number: 27607
Epoch time:      11048.33386829
Element set:     393
Inclination:      064.5611 deg
RA of node:       331.8411 deg
Eccentricity:    0.0059018
Arg of perigee:   349.2692 deg
Mean anomaly:     010.7156 deg
Mean motion:   14.71646085 rev/day
Decay rate:       2.30e-06 rev/day^2
Epoch rev:           43845
Checksum:              301

Satellite: CO-55
Catalog number: 27844
Epoch time:      11047.54239525
Element set:    0048
Inclination:      098.7083 deg
RA of node:       057.9922 deg
Eccentricity:    0.0009710
Arg of perigee:   182.9252 deg
Mean anomaly:     177.1880 deg
Mean motion:   14.20766987 rev/day
Decay rate:      -6.76e-06 rev/day^2
Epoch rev:           39578
Checksum:              354

Satellite: CO-57
Catalog number: 27848
Epoch time:      11047.53773442
Element set:     993
Inclination:      098.7144 deg
RA of node:       057.1377 deg
Eccentricity:    0.0009666
Arg of perigee:   186.5540 deg
Mean anomaly:     173.5505 deg
Mean motion:   14.20554200 rev/day
Decay rate:        7.6e-07 rev/day^2
Epoch rev:           39573
Checksum:              329

Satellite: AO-51
Catalog number: 28375
Epoch time:      11047.47785605
Element set:    0898
Inclination:      098.0843 deg
RA of node:       032.3546 deg
Eccentricity:    0.0084944
Arg of perigee:   075.7919 deg
Mean anomaly:     285.2698 deg
Mean motion:   14.40724001 rev/day
Decay rate:        3.4e-07 rev/day^2
Epoch rev:           34868
Checksum:              343

Satellite: CP3
Catalog number: 31129
Epoch time:      11047.52169249
Element set:    0800
Inclination:      097.9131 deg
RA of node:       078.6497 deg
Eccentricity:    0.0101909
Arg of perigee:   195.1213 deg
Mean anomaly:     164.6942 deg
Mean motion:   14.52376078 rev/day
Decay rate:       2.43e-06 rev/day^2
Epoch rev:           20332
Checksum:              294

Satellite: CO-65
Catalog number: 32785
Epoch time:      11047.62074008
Element set:    0919
Inclination:      097.8644 deg
RA of node:       113.7532 deg
Eccentricity:    0.0014413
Arg of perigee:   205.4734 deg
Mean anomaly:     154.5808 deg
Mean motion:   14.81829891 rev/day
Decay rate:       8.24e-06 rev/day^2
Epoch rev:           15168
Checksum:              320

Satellite: KKS-1
Catalog number: 33493
Epoch time:      11048.68453156
Element set:     319
Inclination:      098.1081 deg
RA of node:       175.7116 deg
Eccentricity:    0.0020882
Arg of perigee:   069.4559 deg
Mean anomaly:     290.8903 deg
Mean motion:   14.81327730 rev/day
Decay rate:       7.91e-06 rev/day^2
Epoch rev:           11182
Checksum:              308

Satellite: SOHLA-1
Catalog number: 33496
Epoch time:      11047.74044989
Element set:    0338
Inclination:      098.0680 deg
RA of node:       158.8778 deg
Eccentricity:    0.0007203
Arg of perigee:   139.1747 deg
Mean anomaly:     221.0009 deg
Mean motion:   14.69556152 rev/day
Decay rate:        8.6e-07 rev/day^2
Epoch rev:           11079
Checksum:              318

Satellite: TISAT-1
Catalog number: 36799
Epoch time:      11048.70893926
Element set:     593
Inclination:      098.1163 deg
RA of node:       115.7242 deg
Eccentricity:    0.0014358
Arg of perigee:   305.8498 deg
Mean anomaly:     054.1312 deg
Mean motion:   14.80317339 rev/day
Decay rate:       -2.6e-07 rev/day^2
Epoch rev:            3263
Checksum:              307

Satellite: STUDSAT
Catalog number: 36801
Epoch time:      11048.84410918
Element set:     135
Inclination:      098.1166 deg
RA of node:       115.7148 deg
Eccentricity:    0.0012886
Arg of perigee:   292.4187 deg
Mean anomaly:     067.5661 deg
Mean motion:   14.80009882 rev/day
Decay rate:     -1.094e-05 rev/day^2
Epoch rev:            3264
Checksum:              301

Satellite: RAX
Catalog number: 37223
Epoch time:      11047.27696737
Element set:    0084
Inclination:      071.9744 deg
RA of node:       305.5778 deg
Eccentricity:    0.0020243
Arg of perigee:   156.1195 deg
Mean anomaly:     204.0952 deg
Mean motion:   14.77236729 rev/day
Decay rate:       2.10e-06 rev/day^2
Epoch rev:           01303
Checksum:              284

Satellite: OOREOS
Catalog number: 37224
Epoch time:      11043.43618410
Element set:    0081
Inclination:      071.9758 deg
RA of node:       314.1598 deg
Eccentricity:    0.0019424
Arg of perigee:   162.0076 deg
Mean anomaly:     198.1778 deg
Mean motion:   14.76892599 rev/day
Decay rate:       2.19e-06 rev/day^2
Epoch rev:           01245
Checksum:              307

Satellite: NANOSALD
Catalog number: 37225
Epoch time:      11047.29787394
Element set:    0039
Inclination:      071.9711 deg
RA of node:       305.6405 deg
Eccentricity:    0.0021383
Arg of perigee:   112.9664 deg
Mean anomaly:     247.4297 deg
Mean motion:   14.78488639 rev/day
Decay rate:     4.7928e-04 rev/day^2
Epoch rev:           00413
Checksum:              326

